User: anonymous   Login
Location: Unspecified
(0.0000°N, 0.0000°E)
Time: 21:53:26
(UTC+00:00)
Language:

HUMSAT D - Orbit

View from above orbital plane
View from above orbital plane
View from above satellite
View from above satellite

Ground track
Ground track

The orbit data is extracted from the following two-line orbital elements,

1 39433U 13066T   18343.82534247 +.00000634 +00000-0 +67442-4 0  9992
2 39433 097.5818 033.8468 0030117 215.0088 144.9152 14.92027679273432
Epoch (UTC): 09 December 2018 19:48:29
Eccentricity: 0.0030117
inclination: 97.5818°
perigee height: 570 km
apogee height: 612 km
right ascension of ascending node: 33.8468°
argument of perigee: 215.0088°
revolutions per day: 14.92027679
mean anomaly at epoch: 144.9152°
orbit number at epoch: 27343

The dashed part of the orbit path shows where the satellite is in the earth's shadow,  

DLR